This is the latest recevied weather packets stored in our database for station/object W4MLN-1. If no packets are shown the sender has not sent any weather packets the latest 10 day(s).
| Time | Temp. | Humidity | Pressure | Rain* | Wind** | Luminosity | Snow |
|---|---|---|---|---|---|---|---|
| 1778014122 | 20° C | 48% | 1013.4 hPa | 0 mm | - | 419 W/m² | - |
| 1778013823 | 20° C | 49% | 1013.5 hPa | 0 mm | - | 444 W/m² | - |
| 1778013522 | 20° C | 49% | 1013.5 hPa | 0 mm | - | 515 W/m² | - |
| 1778013223 | 20° C | 49% | 1013.4 hPa | 0 mm | - | 389 W/m² | - |
| 1778012924 | 20.56° C | 48% | 1013.5 hPa | 0 mm | - | 466 W/m² | - |
| 1778012623 | 20.56° C | 47% | 1013.5 hPa | 0 mm | - | 618 W/m² | - |
| 1778012324 | 21.11° C | 48% | 1013.5 hPa | 0 mm | - | 687 W/m² | - |
| 1778012023 | 21.11° C | 49% | 1013.4 hPa | 0 mm | - | 646 W/m² | - |
| 1778011724 | 21.11° C | 48% | 1013.6 hPa | 0 mm | - | 686 W/m² | - |
| 1778011423 | 21.11° C | 48% | 1013.6 hPa | 0 mm | - | 697 W/m² | - |
| 1778011123 | 21.11° C | 49% | 1013.7 hPa | 0 mm | - | 769 W/m² | - |
| 1778010822 | 21.11° C | 47% | 1013.8 hPa | 0 mm | - | 485 W/m² | - |
| 1778010523 | 20.56° C | 49% | 1013.8 hPa | 0 mm | - | 665 W/m² | - |
| 1778010222 | 20.56° C | 48% | 1013.7 hPa | 0 mm | - | 587 W/m² | - |
| 1778009923 | 20.56° C | 48% | 1013.7 hPa | 0 mm | - | 636 W/m² | - |
| 1778009624 | 20.56° C | 47% | 1013.8 hPa | 0 mm | - | 740 W/m² | - |
| 1778009323 | 20.56° C | 47% | 1013.8 hPa | 0 mm | - | 697 W/m² | - |
| 1778009024 | 21.11° C | 45% | 1013.9 hPa | 0 mm | - | 782 W/m² | - |
| 1778008723 | 21.11° C | 44% | 1013.9 hPa | 0 mm | - | 681 W/m² | - |
| 1778008424 | 21.11° C | 45% | 1014.1 hPa | 0 mm | - | 801 W/m² | - |
| 1778008121 | 21.11° C | 45% | 1014 hPa | 0 mm | - | 855 W/m² | - |
| 1778007820 | 21.11° C | 45% | 1014.1 hPa | 0 mm | - | 815 W/m² | - |
| 1778007521 | 21.11° C | 42% | 1014.1 hPa | 0 mm | - | 549 W/m² | - |
| 1778007221 | 21.11° C | 42% | 1014.1 hPa | 0 mm | - | 930 W/m² | - |
| 1778006921 | 21.11° C | 42% | 1014.3 hPa | 0 mm | - | 836 W/m² | - |
* Rain latest hour (hover to see other rain measurements)
** Current wind speed in m/s (hover to see current wind gust speed)